Location: Newark
(25.6108°S, 54.5803°W)
Time: 08:40:07
(UTC+00:00)

Tiros 1 - Pass Details

Date: 30 October 2020
Orbit: 630 x 664 km, 48.4° (Epoch: 29 November)

Event Time Altitude Azimuth Distance (km) Brightness Sun altitude
Rises 01:08:10 0° 222° (SW) 3,012 11.5 -38.8°
Reaches altitude 10° 01:10:34 10° 218° (SW) 2,092 10.5 -39.2°
Enters shadow 01:11:20 14° 215° (SW) 1,809 10.0 -39.3°
Maximum altitude 01:15:21 59° 138° (SE) 762 - -39.9°
Drops below altitude 10° 01:20:02 10° 58° (ENE) 2,056 - -40.6°
Sets 01:22:23 0° 54° (NE) 2,956 - -40.9°
